Find Starlink 31619

NORAD ID: 59531 Int'l Des: 2024-073 Owner: SPXS Country: US Constellation: starlink operational
LEOCIRCULAR

Live Position

Loading 3D Globe...

About Starlink 31619

Description loading...

Upcoming Passes

Passes for default location (London). Set your location on the main map for personalized predictions.

Altitude History

Loading altitude history...

Two-Line Element Set

1 59531U 24073W 26126.01000881 .00013403 00000-0 49586-3 0 9990
2 59531 43.0027 354.1641 0000655 257.7942 102.2837 15.27569798116063
Epoch: May 6, 2026 • Age: 9 hours

Current Status

Altitude 484.1 km
Velocity 7.62 km/s
Sub-Earth Point -7.66°S, 24.65°W
Launch Date Apr 17, 2024
Age 2 years
Type internet

Technical Details

Classification Payload
Mass 730.00 kg
Dry Mass 700.00 kg
Total Mass 730.00 kg
Length 0.30 m
Diameter 4.10 m
Span 29.00 m
Shape Box + pan
Manufacturer SPXS
Bus Type Starlink V2M
Phase Status In Orbit
Owner/State SPXS/US

Most Searched